SONATE
1 44400U 19038Q   25111.99012848  .00177181  00000-0  11845-2 0  9990
2 44400  97.6993 133.0961 0008405  88.2706 271.9521 15.74747241321889
Taurus 1
1 44530U 19059C   25112.86541179  .00013087  00000-0  24429-2 0  9994
2 44530  98.6002 250.0338 0010780 179.3327 180.7890 14.65056105296959
Duchifat 3
1 44854U 19089C   25112.85215607  .00058271  00000-0  13200-2 0  9998
2 44854  36.9452 297.7214 0001105 264.5998  95.4631 15.42064718295561
TO-108
1 44881U 19093C   25112.53473785  .00001815  00000-0  21612-3 0  9990
2 44881  97.7935 189.1890 0014530  34.9369 325.2797 14.85478059288947
FloripaSat 1
1 44885U 19093G   25112.79427513  .00010097  00000-0  86209-3 0  9995
2 44885  97.8158 200.3200 0010403  16.5240 343.6319 14.97841520289595
RS-44
1 44909U 19096E   25112.47368944  .00000029  00000-0  66567-4 0  9992
2 44909  82.5189 259.2397 0218108  48.2884 313.6648 12.79740273248537
UPMSat 2
1 46276U 20061E   25112.17179428  .00078406  00000-0  88971-3 0  9995
2 46276  97.2481 185.1513 0001624 140.1420 219.9958 15.62106915257897
SALSAT
1 46495U 20068K   25112.43724596  .00013265  00000-0  58451-3 0  9998
2 46495  97.8576  88.2793 0010686 339.9561  20.1252 15.21902653251202
CubeSX-Sirius-HSE
1 47951U 21022V   25112.87528530  .00205542  00000-0  14475-2 0  9993
2 47951  97.4202  23.3639 0010891 109.1138 251.1306 15.73422697226295
CubeSX-HSE
1 47952U 21022W   25112.83156171  .00221080  00000-0  15198-2 0  9996
2 47952  97.4207  23.5584 0010658 106.0480 254.1959 15.73948714226301
GRBAlpha
1 47959U 21022AD  25112.61582223  .00239667  00000-0  16961-2 0  9999
2 47959  97.4201  23.4449 0010602 108.9224 251.3190 15.73216527225098
TUBIN
1 48900U 21059X   25112.88653430  .00056600  00000-0  81480-3 0  9997
2 48900  97.6729 278.4079 0002843  66.6954 293.4599 15.55865315212610
LEDSAT
1 49069U 21073D   25112.18513209  .00080940  00000-0  12374-2 0  9991
2 49069  97.3913 191.9332 0011214 244.5173 115.4921 15.54052536203908
CUTE
1 49263U 21088D   25112.20334724  .00026704  00000-0  56600-3 0  9998
2 49263  97.4534 187.1186 0009256  65.6510 294.5704 15.45014959196959
TeikyoSat 4
1 49396U 21102B   25112.16329229  .00003537  00000-0  23749-3 0  9998
2 49396  97.4160 152.3333 0010866 304.2223  55.7975 15.07391403189253
Z-Sat
1 49399U 21102E   25112.83999568  .00006795  00000-0  37739-3 0  9997
2 49399  97.3859 155.7942 0016387 268.8462  91.0892 15.13920780189756
KOSEN 1
1 49402U 21102H   25112.54588415  .00011515  00000-0  54371-3 0  9992
2 49402  97.3764 158.5705 0014734 243.4233 116.5492 15.19498137189990
HO-113
1 50466U 21131B   25112.84255964  .00001069  00000-0  34812-3 0  9990
2 50466  98.5083 202.4364 0002925 279.3663  80.7195 14.40741033174572
IRIS-A
1 51044U 22002BN  25112.66707926  .00217492  00000-0  12172-2 0  9994
2 51044  97.3271 190.5648 0002704 251.8296 108.2677 15.78732820182289
Foresail-1
1 52766U 22057AL  25112.63657941  .00174355  00000-0  11439-2 0  9999
2 52766  97.6034 259.3942 0000715 183.8310 176.2949 15.75232663162308
SNUGLITE 2
1 52899U 22065F   25112.82474371  .00002487  00000-0  49360-3 0  9991
2 52899  98.1607 255.2861 0006391 259.8775 100.1706 14.63060618149506
IO-117
1 53106U 22080B   25051.21822557 -.00000003  00000-0  00000+0 0  9995
2 53106  70.1434 106.3440 0008542  48.0089 312.1297  6.42557744 61200
UmKA 1 (RS40S)
1 57172U 23091G   25112.85594701  .00009085  00000-0  49277-3 0  9991
2 57172  97.5629 168.4960 0016037 136.1105 224.1404 15.14683893100253
CubeBel-2 (EU11S)
1 57175U 23091K   25112.87182470  .00014772  00000-0  72305-3 0  9999
2 57175  97.5631 169.3839 0013931 143.9855 216.2320 15.18202640100319
VERONIKA
1 58261U 23174F   25112.80158723  .00112575  00000-0  14629-2 0  9999
2 58261  97.4153 196.5487 0007925 212.5054 147.5715 15.58384698 81214
ENSO
1 58470U 23185J   25112.57729645  .00061104  00000-0  10708-2 0  9999
2 58470  97.3767 186.3415 0007572 240.1843 119.8656 15.50350525 77580
EIRSAT-1
1 58472U 23185L   25112.55633926  .00099846  00000-0  13267-2 0  9992
2 58472  97.3742 187.5415 0007044 236.6207 123.4375 15.57841633 77666
SONATE-2
1 59112U 24043Q   25112.31758279  .00027793  00000-0  84756-3 0  9995
2 59112  97.5057 242.6112 0010412 284.2927  75.7159 15.33861469 62933
MO-122
1 60209U 24125G   25112.08059193  .00029410  00000-0  88549-3 0  9990
2 60209  97.2864 324.2879 0018179 314.4458  45.5297 15.34140759 44510
GRBBeta
1 60237U 24128C   25112.48332434  .00007680  00000-0  58215-3 0  9992
2 60237  61.9911 247.1936 0047547  46.9055 313.5999 15.02137144 42974
Curium One
1 60242U 24128H   25112.52739854  .00012324  00000-0  87297-3 0  9993
2 60242  61.9815 245.9923 0047431  42.4999 317.9748 15.04264561 43006
ROBUSTA-3A
1 60243U 24128J   25112.51598190  .00012284  00000-0  88161-3 0  9995
2 60243  61.9885 246.7062 0045832  40.3028 320.1445 15.03835917 42995
CatSat
1 60246U 24125J   25112.55065588  .00013800  00000-0  47594-3 0  9999
2 60246  97.2652 324.4879 0041827 264.7735  94.8731 15.29249565 42640
HYPERVIEW-1G (RS66S)
1 61772U 24199AP  25112.87691146  .00029025  00000-0  90008-3 0  9999
2 61772  97.3614 341.8863 0014193  12.2976 347.8610 15.33271621 69648
AO-123
1 61781U 24199AY  25112.57856525  .00011430  00000-0  42458-3 0  9997
2 61781  97.3625 340.9366 0016372  14.6676 345.5035 15.27588642 69555
ZIMSAT 2
1 61783U 24199BA  25112.87194299  .00047407  00000-0  13055-2 0  9998
2 61783  97.3600 342.1842 0014310  10.7333 349.4214 15.36900018 72810
HADES-R (SO-124)
1 62690U 25009CK  25112.19602383  .00052466  00000-0  20735-2 0  9994
2 62690  97.4105 193.3168 0003356 222.8012 137.2965 15.25303281 14767
HYDRA-T
1 62692U 25009CM  25112.18832258  .00057148  00000-0  22449-2 0  9997
2 62692  97.4103 193.3265 0003390 219.1219 140.9774 15.25481094 14769
JINJUSat 1B
1 63210U 25052A   25112.21143763  .00020005  00000-0  94793-3 0  9996
2 63210  97.4472   6.9759 0006279 117.3444 242.8430 15.19330072  5909
NUSHSAT 1
1 63211U 25052B   25112.21150162  .00021198  00000-0  10017-2 0  9998
2 63211  97.4463   6.9708 0006228 121.9052 238.2789 15.19413573  5908
TEVEL2-4
1 63213U 25052D   25112.67759083  .00019110  00000-0  90941-3 0  9993
2 63213  97.4383   7.3802 0004930 128.1997 231.9682 15.19196272  5979
TEVEL2-5
1 63214U 25052E   25112.21665469  .00021683  00000-0  10319-2 0  9996
2 63214  97.4374   6.9263 0004999 130.7402 229.4268 15.19168661  5907
TEVEL2-6
1 63215U 25052F   25112.21752757  .00021820  00000-0  10395-2 0  9991
2 63215  97.4381   6.9248 0005079 130.3466 229.8213 15.19130370  5905
TEVEL2-1
1 63217U 25052H   25112.15620226  .00021012  00000-0  10069-2 0  9992
2 63217  97.4350   6.8420 0004849 141.3671 218.7911 15.18934879  5893
TEVEL2-2
1 63218U 25052J   25112.22228836  .00024532  00000-0  11743-2 0  9992
2 63218  97.4349   6.9082 0004832 141.2181 218.9401 15.18941238  5909
TEVEL2-3
1 63219U 25052K   25111.62938768  .00021918  00000-0  10511-2 0  9995
2 63219  97.4350   6.3234 0004644 143.8286 216.3263 15.18902328  5815
TEVEL2-8
1 63237U 25052AD  25112.18426784  .00021360  00000-0  10574-2 0  9997
2 63237  97.4416   6.8349 0008497 168.2858 191.8575 15.17778200  5896
TEVEL2-9
1 63238U 25052AE  25112.64650097  .00018664  00000-0  92527-3 0  9997
2 63238  97.4423   7.2888 0008645 167.5371 192.6078 15.17754414  5961
TEVEL2-7
1 63239U 25052AF  25112.64734347  .00018643  00000-0  92520-3 0  9999
2 63239  97.4421   7.2872 0008699 167.9380 192.2064 15.17717580  5960
HYDRA-W
1 63490U 25052BL  25112.61433828  .00037975  00000-0  17395-2 0  9990
2 63490  97.4373   7.3085 0012928 168.1554 191.9987 15.20304394  5967
HADES-ICM
1 63492U 25052BN  25112.81547762  .00034692  00000-0  16027-2 0  9991
2 63492  97.4379   7.4997 0013096 171.5625 188.5832 15.20029813  5996
